Location: Colonia Mina de C?rbuni
(46.1667°N, 22.7167°E)
Time: 05:56:21
(UTC+00:00)

Tiros 1 - Pass Details

Date: 27 April 2024
Orbit: 624 x 657 km, 48.4° (Epoch: 25 May)

Event Time Altitude Azimuth Distance (km) Brightness Sun altitude
Rises 18:52:28 0° 207° (SSW) 2,948 10.4 -12.8°
Reaches altitude 10° 18:55:08 10° 194° (SSW) 2,036 9.5 -13.2°
Maximum altitude 18:58:54 24° 141° (SE) 1,319 8.1 -13.7°
Enters shadow 19:00:11 21° 116° (ESE) 1,419 8.3 -13.9°
